Wind_Speed
8 9 9 9 9 9 8 5 4 3 5 6 9 8 10 7 4 5 5 4 1 4 4 6 9 9 7 9 15 16 16 14 9 5 6 7 15 16 11 13 13 14 14 13 14 14 14 14 13 12 10 8 7 8 9 9 9 10 10 11 12 12 13 14 16 16 15 13 12 12 13 11 10 10 10 11 12 12 12 11 11 11 13 14 14 14 14 13 13 13 12 12 11 12 13 14 14
10 12 10 9 9 7 4 4 5 4 7 7 8 10 8 1 4 6 3 7 6 7 6 6 7 9 8 11 14 15 16 15 14 10 10 15 17 14 12 13 14 16 15 14 15 14 14 14 13 12 9 8 8 8 9 9 9 9 10 12 13 13 14 14 16 16 14 13 12 12 12 11 11 11 10 10 12 12 11 11 10 11 13 15 15 14 13 13 12 12 12 12 12 12 13 13 14
11 14 10 8 7 7 4 4 6 6 7 7 8 10 7 4 3 7 6 13 11 10 7 7 7 9 2 11 15 13 13 12 15 12 10 14 12 11 14 14 14 15 14 16 16 15 15 14 14 12 10 9 8 9 9 10 9 8 10 12 14 14 15 16 17 17 15 13 12 11 11 10 11 10 10 11 12 12 12 11 12 12 12 13 14 13 12 12 12 12 12 12 12 12 12 13 14
11 12 11 8 5 6 5 4 6 7 8 8 7 4 7 4 3 9 13 14 12 9 7 7 7 11 8 13 14 11 12 10 14 11 8 12 12 14 17 15 15 14 14 16 16 16 16 15 15 13 12 11 9 9 10 10 9 8 10 12 15 15 15 17 18 17 15 14 13 12 11 10 11 10 11 11 12 12 12 12 13 12 12 12 13 12 11 11 11 12 12 12 12 12 12 13 14
11 12 12 9 4 3 4 4 6 7 8 9 5 3 3 5 11 16 12 12 10 7 8 6 7 9 13 13 9 8 10 10 13 14 12 15 18 19 19 16 17 18 16 16 15 16 18 16 15 14 13 12 11 9 10 10 9 8 10 12 14 15 15 17 18 18 16 14 14 13 12 11 11 11 11 12 12 12 12 13 13 13 12 12 12 12 11 11 11 12 12 12 12 12 13 13 13
10 11 11 9 5 4 4 6 6 8 10 11 8 6 4 9 14 12 10 9 8 7 7 4 8 12 11 10 10 9 10 10 11 14 16 18 21 21 20 17 17 17 17 15 14 17 19 17 15 15 14 13 11 10 10 9 9 9 10 12 14 15 16 18 19 18 16 15 15 13 12 11 11 12 12 12 12 11 12 13 13 13 13 12 11 11 11 11 11 12 12 12 12 13 13 12 12
11 9 6 7 5 4 5 7 7 9 9 14 10 2 3 8 11 7 9 7 7 6 3 3 10 11 8 8 9 12 14 13 11 16 19 20 23 23 22 19 17 15 16 15 14 19 19 17 16 15 15 13 12 11 10 9 9 9 10 13 14 16 18 19 19 18 16 15 15 13 12 12 12 13 13 12 12 11 12 13 13 13 13 12 11 11 11 10 10 12 12 12 12 13 12 12 12
12 7 3 5 5 4 6 8 8 10 7 13 8 3 2 8 8 5 8 5 6 6 4 5 8 8 11 13 9 11 16 17 17 20 22 22 23 24 22 19 16 13 13 14 15 21 19 17 17 15 15 13 12 11 10 10 9 10 11 14 16 17 18 19 19 18 16 16 15 13 12 12 13 14 13 12 12 12 12 13 13 13 13 12 12 11 10 9 9 11 11 12 12 13 12 12 12
11 7 4 5 6 6 7 8 9 12 10 12 3 7 3 7 5 5 7 7 7 6 6 6 6 8 12 16 12 10 14 17 19 20 21 21 23 24 22 18 16 14 13 13 14 20 19 18 17 16 15 14 12 10 9 10 9 9 10 14 17 18 18 18 18 17 17 16 15 14 13 12 13 14 14 13 12 12 13 13 13 13 13 12 12 11 9 8 9 10 11 12 12 13 12 12 12
7 6 5 5 6 7 8 9 8 11 14 12 3 6 5 6 4 5 6 6 8 6 6 4 5 11 12 14 11 9 12 17 20 20 20 21 24 25 23 22 17 15 14 12 14 18 19 17 17 16 15 14 12 10 10 10 9 9 10 14 17 17 17 17 17 17 16 16 15 14 13 12 13 14 13 13 12 12 12 12 12 12 12 12 12 10 9 8 9 9 10 11 12 13 13 13 13
5 5 6 5 6 8 7 9 8 11 12 7 4 4 4 4 4 5 5 6 7 6 7 2 6 15 12 13 8 10 16 17 19 19 20 20 24 27 25 22 18 17 15 14 16 18 17 17 16 15 14 13 12 10 9 10 9 9 9 11 14 15 15 16 17 16 16 15 15 14 13 12 12 13 13 12 11 11 11 11 12 12 12 12 11 10 8 8 8 9 9 11 12 12 13 13 13
6 5 6 6 7 7 8 10 8 12 10 8 6 4 4 4 4 6 6 8 8 6 6 7 7 14 11 12 7 12 18 17 18 18 20 19 21 26 26 22 19 19 17 15 14 16 16 16 16 14 14 13 11 9 9 10 10 9 8 8 11 13 14 15 16 15 15 15 14 13 12 12 12 12 11 11 11 10 10 11 12 12 12 12 11 9 8 8 8 9 9 11 12 12 13 12 12
6 6 6 6 7 7 9 11 8 13 9 8 5 6 6 6 8 8 4 7 7 6 7 4 6 12 9 11 9 11 16 16 18 18 19 19 19 22 25 24 21 19 17 16 13 11 12 15 15 14 14 12 10 10 9 10 11 9 7 8 10 12 13 14 14 14 15 14 12 12 12 12 11 11 10 10 10 10 10 11 11 12 12 11 10 8 8 8 8 9 10 11 12 12 12 12 12
7 6 6 6 7 9 9 10 9 13 6 10 7 9 7 6 7 6 3 7 7 5 7 6 4 12 12 10 9 9 13 18 20 19 19 19 18 19 20 21 22 20 18 17 15 12 9 10 14 14 13 11 9 10 10 10 11 10 8 8 9 11 12 12 13 13 13 13 12 11 12 12 11 10 10 10 10 10 10 11 11 12 12 10 9 8 8 8 8 10 11 12 12 12 12 11 11
7 5 6 6 7 9 9 10 10 12 4 9 9 11 8 5 5 6 3 4 5 7 8 7 4 7 10 12 9 10 16 21 21 20 20 19 19 18 17 16 17 19 18 17 15 12 10 9 11 12 10 9 9 11 11 11 10 10 8 8 9 9 10 11 12 12 12 11 11 11 11 11 10 10 10 10 10 11 11 11 12 12 11 10 9 8 7 8 8 10 12 12 12 11 11 10 10
7 6 6 6 7 8 8 9 8 11 5 8 12 12 9 7 4 5 6 6 7 9 5 4 4 4 4 11 14 19 22 22 21 20 20 19 20 19 17 15 14 15 15 16 15 13 11 9 9 7 6 6 8 9 10 11 11 10 9 8 8 8 8 9 10 10 11 11 11 11 11 11 10 10 11 12 11 11 11 11 11 12 11 10 9 8 7 8 9 10 12 12 11 11 10 9 8
6 6 7 6 8 8 7 8 6 7 3 11 11 9 8 9 4 2 8 6 7 7 4 7 6 8 10 15 22 25 24 22 21 18 17 17 18 18 17 16 14 13 12 12 12 13 12 9 8 6 5 3 5 7 8 9 11 11 9 9 9 8 8 9 9 9 9 10 11 11 11 11 10 11 13 13 13 13 12 11 11 12 11 9 9 8 7 8 9 11 12 12 11 10 9 8 7
6 5 7 6 7 8 9 8 4 3 7 9 6 8 7 9 10 3 4 4 6 6 5 9 9 13 16 20 24 23 23 22 19 16 14 14 14 15 16 15 15 14 11 10 8 9 10 9 8 6 6 4 3 5 6 7 11 13 11 10 8 8 8 7 7 8 9 10 11 11 11 11 11 12 13 14 14 14 13 12 12 12 10 9 9 8 8 9 10 11 12 11 10 10 9 8 8
7 6 6 7 9 9 10 6 7 5 6 7 5 7 7 7 12 6 6 9 7 7 7 9 9 15 16 19 21 20 21 19 16 14 12 10 11 13 13 13 13 14 12 9 8 6 6 6 8 8 7 5 3 4 5 6 10 13 11 9 8 8 8 7 7 7 9 10 11 11 11 11 12 12 13 14 14 14 14 12 12 12 11 10 10 9 9 9 10 12 11 11 10 10 10 10 8
8 6 7 9 9 11 10 2 8 8 5 4 4 5 6 8 10 6 8 12 9 7 8 11 11 14 15 17 18 18 18 15 14 12 9 11 15 14 12 12 10 12 13 9 7 6 5 5 6 7 7 5 4 6 5 5 9 11 11 10 9 8 7 8 8 7 8 9 11 11 12 12 12 14 14 13 13 13 14 14 13 13 12 11 11 10 10 10 10 11 11 11 11 12 11 12 10
7 7 10 9 6 9 6 1 2 3 6 3 3 3 6 9 8 7 9 11 9 9 11 14 13 15 16 16 16 16 15 13 13 10 10 12 13 13 12 12 10 12 13 9 7 5 5 4 4 5 5 5 5 7 7 6 9 9 9 11 11 9 7 8 8 8 9 10 11 11 12 13 12 14 13 13 13 14 15 15 14 14 13 12 12 11 11 11 11 11 12 13 13 12 12 13 13
6 9 14 12 8 7 3 1 1 0 3 1 3 4 3 6 5 6 9 9 4 2 5 13 14 16 17 15 14 14 12 11 11 11 13 12 13 14 12 11 10 12 13 10 8 5 5 5 4 4 3 5 4 4 6 6 8 8 7 9 10 10 8 7 8 8 10 11 10 8 9 10 10 11 12 15 16 16 17 16 15 15 14 14 14 13 12 13 13 13 12 13 12 12 13 11 13
7 8 13 12 8 5 5 4 4 2 5 4 2 5 5 6 5 5 9 5 9 10 7 6 10 17 18 15 12 11 12 10 10 12 14 12 14 13 12 12 11 12 12 10 8 5 5 5 5 4 3 4 2 4 7 5 7 7 6 8 8 9 9 6 7 9 10 9 5 6 9 11 11 11 12 16 18 18 18 17 17 16 16 16 16 15 14 14 16 15 11 12 11 10 12 9 10
9 8 9 9 7 4 3 4 2 3 9 6 0 4 4 6 6 6 10 4 12 10 8 9 11 17 16 13 11 10 11 10 11 15 15 14 14 14 13 14 14 13 12 10 8 6 6 5 5 5 4 2 2 4 8 8 5 2 3 7 6 7 8 6 7 9 9 7 5 6 10 11 11 11 12 14 15 16 17 20 19 17 16 17 18 17 17 16 17 17 13 13 12 9 10 9 9
10 9 9 4 5 4 3 2 2 4 6 3 2 2 3 5 4 5 10 7 10 10 6 7 11 15 13 11 11 10 10 10 12 16 16 15 16 15 14 15 15 13 12 10 9 7 6 5 6 6 5 2 2 4 6 10 9 5 4 0 4 6 7 6 5 5 4 3 3 7 8 8 9 10 12 11 12 13 15 21 21 18 18 19 19 17 17 16 16 18 15 14 13 10 10 9 8
7 11 12 3 4 5 3 3 4 4 5 4 2 6 8 7 4 2 8 8 7 9 5 6 10 13 12 10 10 9 9 9 11 15 16 17 16 15 16 15 14 13 12 11 9 8 7 6 6 5 5 4 3 3 5 6 6 5 6 6 2 3 7 7 6 3 1 1 1 2 3 6 9 11 12 11 12 13 13 18 23 22 19 18 19 16 16 16 14 16 16 13 11 10 10 10 8
4 10 11 2 4 7 4 5 7 6 6 6 6 9 10 9 6 3 8 10 5 8 7 7 9 11 12 11 9 8 9 10 13 16 16 15 15 15 16 16 15 14 12 11 10 8 8 8 8 6 6 7 5 4 6 5 4 5 3 5 6 3 3 5 9 5 2 2 1 2 3 3 7 10 10 10 11 13 13 16 21 23 19 15 14 13 14 15 14 14 15 12 10 9 9 11 10
5 8 7 4 6 5 6 8 9 6 6 7 7 10 11 10 8 8 12 13 8 8 7 8 9 9 11 11 10 8 8 12 15 16 14 14 14 14 16 17 16 15 13 12 11 9 9 10 9 8 7 8 8 7 6 5 4 5 3 4 5 3 5 5 5 6 4 5 3 5 8 3 3 7 8 9 9 11 14 16 17 19 19 16 12 10 10 12 13 14 14 13 13 10 8 11 11
6 7 6 8 9 7 9 11 8 6 7 8 6 8 10 12 11 11 13 8 9 8 8 9 9 8 10 11 10 8 9 13 14 15 15 15 16 16 16 18 17 16 14 13 12 11 11 11 10 9 8 8 9 8 7 5 4 4 4 5 4 3 3 4 3 2 5 5 5 7 11 5 4 4 5 7 9 10 12 14 14 16 18 16 14 13 10 11 12 13 14 14 13 11 8 9 11
8 8 6 9 8 9 13 12 11 10 6 7 5 5 8 12 14 16 11 9 10 8 8 8 9 9 9 10 9 9 11 12 12 15 17 17 18 18 18 19 18 17 15 14 13 12 11 11 11 11 10 10 9 8 8 7 5 5 6 5 5 5 3 3 4 3 3 2 2 8 12 8 4 5 3 4 7 9 10 10 12 15 16 15 16 16 13 12 12 11 13 12 11 9 9 8 9
8 8 7 8 6 9 14 14 13 11 7 8 6 5 6 12 16 18 14 12 10 9 9 9 9 8 9 10 9 10 11 11 14 17 18 19 20 19 19 19 20 19 17 16 15 13 13 12 12 12 11 11 10 10 9 8 8 8 8 7 5 5 3 3 4 2 3 5 3 3 7 8 4 4 5 4 5 6 9 10 9 11 13 15 16 15 13 12 11 11 11 10 10 10 10 10 10
7 7 7 7 6 10 10 16 14 11 9 10 9 5 7 14 14 12 15 12 11 9 9 9 9 9 9 9 8 9 11 12 15 19 19 19 22 21 19 19 22 23 19 18 17 15 14 13 13 13 11 11 10 10 9 9 9 9 8 7 7 7 5 4 4 2 3 5 4 4 1 4 3 2 4 5 5 6 7 9 8 8 9 13 13 13 14 13 11 12 11 10 11 12 11 11 13
6 6 7 7 8 8 5 13 14 13 10 11 11 6 7 9 1 13 13 11 11 9 10 10 9 9 9 8 8 8 9 11 12 16 19 19 21 24 20 18 23 24 21 20 19 17 16 15 14 13 11 10 9 8 8 8 8 7 8 8 7 7 7 5 3 3 3 4 4 4 2 2 2 1 2 4 5 6 7 7 8 8 9 11 10 10 14 15 13 11 11 12 12 12 11 11 13
6 7 7 8 10 8 5 12 15 15 11 10 11 8 10 10 4 14 9 8 10 9 9 10 9 8 8 7 9 8 8 9 9 13 20 18 20 25 22 18 23 25 22 22 20 19 18 16 14 12 11 9 8 8 7 8 8 7 8 8 7 7 7 6 4 4 4 3 3 3 1 2 2 1 1 3 5 6 7 7 7 7 8 10 10 11 13 16 16 12 10 12 11 12 12 12 9
4 5 5 7 10 11 8 4 10 13 11 8 8 8 11 12 6 11 12 9 9 9 8 9 10 9 9 8 8 9 9 9 9 14 22 20 20 24 23 20 22 23 24 23 21 20 18 16 14 13 11 9 8 7 8 9 9 8 7 7 8 7 7 6 5 4 3 3 4 3 2 2 1 1 2 1 4 4 3 6 8 9 8 8 9 12 14 15 16 14 11 11 12 12 13 13 10
9 7 5 6 8 10 6 3 8 9 8 7 8 9 10 11 12 9 11 12 9 9 8 7 8 9 9 9 8 8 9 9 10 18 25 22 20 23 24 23 22 22 23 23 22 20 19 17 15 13 11 10 7 5 7 8 8 8 7 6 6 8 7 5 5 4 3 4 4 2 1 2 1 2 2 1 1 2 3 3 6 9 10 9 8 10 11 13 15 16 15 13 13 13 13 14 12
10 9 8 9 7 6 2 8 8 3 3 7 7 9 11 10 12 12 8 13 11 11 10 8 8 9 9 10 10 9 8 8 11 18 27 26 23 25 25 25 23 21 22 22 21 20 19 18 16 14 12 11 7 6 6 6 6 6 6 5 5 7 7 6 6 5 3 2 2 2 1 1 2 3 3 2 1 2 3 3 4 6 7 9 10 11 12 13 15 16 15 14 15 15 16 17 14
9 8 8 8 6 7 5 6 8 4 2 5 7 9 13 13 13 14 10 12 13 12 11 10 11 10 9 10 10 10 8 7 9 12 22 27 27 28 27 27 26 23 22 22 20 19 19 18 16 15 13 10 7 7 8 7 5 5 5 4 4 5 6 6 6 4 4 3 2 3 2 2 1 3 2 2 2 2 2 2 3 5 6 6 8 11 14 16 16 16 15 14 16 17 18 19 17
8 7 7 8 6 9 7 7 8 5 3 4 7 9 12 14 15 15 14 12 11 13 12 10 11 11 10 10 9 8 7 7 7 8 13 22 28 30 28 27 27 25 23 23 21 19 18 17 17 16 14 12 9 9 9 8 7 7 6 5 4 4 4 5 6 5 5 3 2 2 2 1 0 2 2 3 3 2 3 3 3 4 5 6 8 8 10 13 15 17 18 17 16 16 17 18 18
6 6 7 8 8 10 7 3 4 3 2 4 6 8 9 11 14 14 14 13 8 11 15 11 10 11 10 10 9 8 8 8 9 8 9 15 25 28 26 25 26 25 24 24 22 21 20 18 17 17 15 14 12 11 11 10 8 7 6 5 5 6 5 5 6 5 4 3 2 2 1 1 2 2 2 3 3 3 4 3 3 4 5 6 7 8 8 10 11 14 17 19 18 17 19 18 17
7 8 9 9 9 10 7 1 2 3 3 5 7 8 7 10 13 12 11 10 10 10 13 13 13 12 11 10 9 9 9 8 7 8 8 9 18 24 24 24 25 25 24 25 25 23 21 20 18 18 17 15 14 13 13 11 9 7 7 5 5 7 7 6 5 4 3 3 2 1 0 1 1 2 2 2 3 4 5 4 3 4 6 7 8 8 9 10 10 11 13 17 21 22 23 20 16
7 9 11 12 12 11 8 5 3 4 5 7 8 6 6 10 13 13 10 10 13 12 13 13 14 15 14 12 11 10 8 5 4 6 6 7 13 20 25 25 23 23 24 25 27 24 22 21 19 19 18 16 16 16 14 11 9 8 8 8 8 8 7 7 5 4 4 2 1 0 1 1 1 1 1 2 3 4 5 4 5 5 6 8 9 10 10 11 12 13 13 15 20 24 26 23 19
6 7 10 12 12 9 9 10 6 4 7 4 9 5 6 8 8 10 11 11 14 14 14 15 13 13 14 13 12 10 8 6 5 7 6 10 12 16 22 25 24 23 23 24 27 26 22 22 21 20 19 17 17 17 15 12 11 10 9 7 6 5 6 7 5 4 4 2 1 1 1 1 1 1 1 1 2 3 3 4 5 6 7 8 9 11 12 12 12 12 13 15 18 21 24 24 24
4 2 7 9 10 8 8 10 7 6 8 3 10 8 6 6 9 9 9 12 13 13 13 14 12 12 12 12 11 11 9 8 8 7 7 10 14 15 18 24 25 24 24 23 26 26 23 22 22 22 20 18 19 18 17 15 13 12 10 7 6 5 5 7 5 4 4 3 2 1 1 1 1 1 1 2 2 2 3 4 5 6 8 9 10 11 12 12 13 13 13 14 17 19 22 25 26
6 0 5 10 8 7 7 9 8 7 8 6 9 9 6 6 8 11 11 11 11 11 12 12 12 11 11 11 10 10 10 9 9 9 8 7 13 18 19 23 26 25 26 24 24 25 24 23 23 23 21 19 20 19 19 16 14 14 12 9 9 7 6 7 7 6 4 4 4 2 1 1 1 1 1 2 3 3 3 4 6 7 7 8 10 11 12 13 14 15 14 13 15 17 21 23 26
3 2 4 8 7 6 7 8 7 7 8 9 10 10 6 6 7 8 11 9 9 10 11 11 11 11 11 10 10 10 10 10 10 11 9 7 13 20 21 23 25 26 26 25 24 24 24 22 23 25 22 21 21 20 20 17 15 15 13 11 10 9 8 7 7 8 6 5 4 3 2 2 2 1 2 2 3 4 4 5 5 7 7 9 10 11 13 14 15 15 15 16 16 17 19 21 25
0 2 5 8 7 7 7 6 6 7 8 10 13 13 10 7 6 7 7 6 9 9 8 9 11 11 10 9 10 11 10 10 11 12 11 10 14 21 22 22 23 24 25 25 23 23 24 23 23 25 23 21 22 21 20 18 17 16 14 12 11 10 9 9 7 7 7 6 5 4 3 3 3 3 3 3 4 4 4 5 5 6 8 9 10 10 12 14 15 15 15 16 17 18 19 19 22
4 4 6 7 6 7 6 6 6 7 7 9 13 14 12 8 6 7 6 2 8 6 3 7 9 12 11 9 10 11 10 10 12 12 11 11 12 17 20 20 21 22 24 24 24 23 23 23 23 24 23 22 22 22 20 19 18 16 14 14 13 12 11 10 8 8 8 7 5 5 4 4 4 4 4 4 4 4 5 6 6 7 7 8 9 10 12 13 15 16 14 14 16 18 18 18 19
6 6 6 6 6 6 6 7 6 7 9 10 12 12 11 8 7 10 11 5 6 5 2 4 7 9 11 10 10 9 8 10 11 10 10 11 10 12 16 18 19 21 23 24 23 23 22 22 23 24 24 23 22 22 21 19 18 17 16 16 15 13 12 10 9 8 8 7 6 6 5 4 4 4 5 4 4 5 6 7 7 8 9 9 10 11 13 15 17 18 17 16 16 16 17 18 20
7 7 6 6 6 5 7 7 6 8 7 7 9 9 7 7 6 9 13 12 8 7 7 6 8 6 8 10 10 9 9 10 10 10 10 11 11 12 17 20 19 20 22 22 22 22 21 21 23 24 24 23 22 22 21 19 18 17 17 16 15 14 13 12 10 9 9 8 7 6 6 5 5 5 5 6 7 7 7 8 8 10 11 12 13 14 15 15 16 17 18 18 18 17 17 18 20
8 9 8 7 7 6 7 6 6 7 5 4 6 5 4 4 3 5 10 11 9 9 8 8 6 7 5 9 10 9 10 9 8 9 9 11 15 16 20 22 21 21 22 21 21 21 21 21 23 23 23 23 22 22 21 20 18 17 17 16 15 15 14 13 11 10 9 9 7 7 7 6 6 6 6 7 8 8 9 9 10 11 13 14 15 15 16 16 15 16 17 18 19 19 19 19 20
6 7 8 7 6 7 7 6 7 8 7 7 6 4 3 4 5 7 10 10 9 10 8 6 7 7 5 6 7 7 8 9 9 8 7 8 15 19 20 22 22 23 23 22 21 22 21 21 22 22 22 23 23 22 21 20 18 18 17 16 16 15 14 13 12 11 10 10 9 8 8 7 7 7 7 8 8 9 9 10 11 11 12 13 14 15 15 16 16 16 16 17 18 19 19 20 20
5 6 8 7 7 8 6 6 7 7 8 7 5 5 6 7 7 10 12 13 12 11 11 9 7 7 6 4 5 6 7 7 7 7 7 7 12 18 20 20 20 22 24 24 23 23 22 21 21 22 21 23 23 22 21 20 19 18 18 17 16 15 14 14 13 12 11 11 10 9 8 8 8 8 8 8 9 9 10 10 11 13 13 13 14 15 15 16 16 17 17 17 18 18 19 21 21
7 7 7 7 8 8 5 5 6 6 8 6 6 7 7 6 6 7 12 13 12 12 12 11 7 6 8 7 6 7 7 7 7 5 6 6 10 17 21 21 22 22 25 26 26 25 23 21 21 22 22 23 24 23 22 21 20 19 18 18 17 16 16 14 13 12 12 11 11 10 9 8 8 8 8 9 9 10 11 12 13 14 15 15 16 16 16 16 16 16 17 18 19 18 20 21 21
11 10 8 6 7 7 5 5 5 7 7 6 8 10 9 8 7 7 10 11 9 10 9 7 7 6 6 6 8 8 7 6 6 6 5 5 7 15 22 24 23 24 24 25 27 26 24 22 21 22 23 24 25 24 23 22 21 20 19 18 18 17 16 16 14 13 13 12 11 10 9 9 9 9 9 10 11 11 12 12 13 14 15 15 16 16 16 16 16 17 18 19 19 19 19 21 21
11 11 10 7 6 7 6 5 5 7 7 7 8 9 8 7 8 9 11 10 8 8 7 6 8 7 5 4 5 7 6 6 6 6 6 6 6 11 21 24 23 23 24 24 25 26 25 23 21 21 22 23 25 25 23 22 21 20 19 19 19 18 16 16 15 14 13 12 11 10 10 10 10 11 11 11 12 12 12 13 13 14 15 15 16 16 16 16 16 17 18 19 19 19 19 20 21
8 8 8 7 6 5 5 6 7 7 7 7 7 8 7 5 6 8 10 8 7 7 6 5 7 7 6 6 3 3 4 5 5 4 5 5 6 9 17 23 22 23 25 25 26 28 27 26 24 22 22 23 24 25 23 23 22 21 20 20 19 18 17 15 15 14 13 12 11 11 11 11 11 12 12 12 13 13 14 14 15 15 15 16 16 16 17 17 17 18 19 20 20 20 20 20 21
9 7 7 8 6 5 4 5 6 5 6 7 7 7 7 6 5 7 9 8 8 9 9 8 8 5 4 6 4 4 5 4 3 3 5 5 5 8 14 19 19 19 22 25 27 28 27 26 25 24 23 23 25 25 24 23 23 22 21 20 20 18 17 16 15 14 13 12 11 12 12 12 13 13 13 14 14 15 15 16 16 16 16 17 17 17 17 17 18 19 20 20 20 20 21 21 22
Wind_Direction
279 293 295 285 277 274 271 238 253 217 226 257 254 265 256 245 113 150 113 80 167 78 56 58 32 44 67 78 80 63 50 44 39 66 109 96 89 95 99 105 111 108 114 129 135 136 125 117 112 107 110 109 104 99 100 113 138 153 160 164 160 162 166 168 166 165 163 158 161 159 158 158 151 142 138 141 144 141 139 142 143 139 134 130 126 121 115 112 111 111 112 112 113 115 115 112 114
278 286 274 260 262 258 265 215 252 246 224 246 244 253 252 120 81 229 150 87 94 90 64 74 69 58 92 99 81 71 59 60 73 81 109 104 90 88 97 101 106 106 113 133 136 137 130 122 118 115 115 108 103 101 100 110 130 151 163 167 165 165 166 167 165 167 165 159 163 163 161 159 151 142 140 146 147 144 143 140 136 133 132 132 130 124 121 117 116 114 113 113 114 117 116 115 118
277 285 269 236 236 238 271 236 239 259 243 246 246 239 214 135 182 225 120 101 95 96 84 83 76 21 55 102 72 73 71 68 83 94 110 102 95 95 98 97 105 114 125 139 136 133 135 130 126 124 120 110 103 104 105 111 125 149 166 170 170 167 167 168 167 168 167 162 164 165 164 159 150 145 144 150 153 147 146 143 135 133 132 131 130 127 125 123 120 117 116 116 118 120 119 119 121
273 277 270 246 227 220 246 243 235 253 255 254 266 238 180 180 114 105 98 105 105 111 113 107 83 19 30 92 86 85 80 69 73 83 98 91 93 98 100 102 107 115 124 135 134 132 140 138 134 134 129 120 113 110 108 113 123 141 158 171 172 168 169 170 169 168 167 166 165 165 166 161 150 148 149 152 157 150 149 148 138 137 137 134 131 129 128 127 125 122 121 121 122 124 124 124 124
269 265 262 254 249 239 243 246 241 242 251 254 274 7 140 133 90 96 100 111 119 126 118 119 117 66 48 64 80 90 91 88 79 83 87 85 91 96 102 112 112 111 116 126 132 137 145 144 141 141 135 128 126 124 117 118 124 133 149 167 173 168 167 170 170 168 167 166 166 167 166 161 152 151 150 152 157 153 151 148 142 141 139 137 134 130 129 130 128 126 126 126 128 129 129 129 125
258 254 245 242 269 304 278 245 239 241 246 257 274 357 31 104 100 108 113 117 114 105 114 114 111 98 70 57 57 62 85 93 83 86 86 84 90 95 101 109 110 110 116 122 131 144 150 150 149 145 137 135 136 133 126 126 124 126 141 156 169 168 166 170 169 166 167 166 166 169 166 160 155 153 152 152 154 155 155 150 149 146 142 142 138 133 133 135 133 131 131 131 133 132 132 131 124
248 248 222 222 257 275 260 247 245 248 236 250 256 348 340 93 101 127 125 124 111 110 145 119 108 106 99 93 69 60 76 89 90 87 87 89 91 96 99 102 107 112 117 121 136 149 153 153 152 147 142 142 144 141 136 134 129 125 133 146 159 165 166 169 168 166 169 168 167 171 168 161 158 157 154 153 151 156 159 155 156 152 149 149 144 141 143 142 138 136 135 136 138 134 135 130 121
246 251 232 225 240 221 238 251 248 254 250 253 241 96 337 94 108 148 131 156 144 151 169 149 140 113 99 98 89 79 79 88 95 94 92 92 94 97 99 102 106 111 116 119 138 150 155 158 154 150 148 150 153 150 145 141 134 128 132 142 154 162 166 168 168 168 171 171 171 174 170 161 159 159 156 155 153 156 160 159 159 155 154 154 150 150 150 144 139 139 139 142 143 137 137 131 122
237 238 248 245 244 238 237 245 245 254 259 262 256 85 64 96 133 164 152 182 150 161 157 161 159 108 100 98 99 100 91 94 96 97 97 97 100 99 101 105 105 110 113 115 138 154 158 159 157 157 155 157 158 152 144 137 133 132 135 143 155 164 167 170 171 170 172 173 174 174 170 162 160 162 159 159 158 154 156 158 157 156 156 156 156 156 154 147 140 141 143 145 144 139 138 133 125
229 223 238 247 242 249 241 242 239 250 248 240 209 123 148 118 168 182 167 161 135 154 122 112 126 113 110 103 105 109 107 109 101 98 98 100 103 101 101 103 105 110 115 124 145 158 161 163 162 163 162 161 159 154 142 130 130 135 139 148 157 165 168 170 173 174 173 175 175 174 171 165 164 166 162 162 162 157 157 158 159 161 160 161 163 162 158 150 141 139 145 148 146 140 139 135 127
230 213 233 254 243 245 244 247 229 243 244 203 137 124 184 181 198 193 167 154 147 130 109 178 131 112 107 100 101 115 116 111 102 100 98 98 104 107 105 102 105 105 108 131 154 163 166 168 166 167 168 167 166 160 145 130 127 131 136 149 157 163 169 169 172 174 174 176 174 173 172 169 170 170 165 165 167 164 163 163 166 168 167 170 171 167 161 153 145 142 149 154 150 143 140 137 129
244 217 221 240 248 244 242 253 236 238 224 149 135 139 204 221 212 210 181 167 155 127 149 215 143 118 119 109 112 125 118 107 104 105 101 98 102 109 111 107 104 100 99 115 146 168 173 172 170 175 175 174 172 165 152 137 129 130 136 149 159 165 170 171 172 174 173 174 172 173 175 173 176 176 172 170 171 172 170 169 171 175 174 176 175 169 162 154 146 146 156 158 153 146 142 139 130
247 238 230 230 249 254 249 256 249 246 216 138 164 166 182 205 209 220 173 136 145 165 156 162 139 130 124 117 128 128 116 114 115 109 105 101 97 103 111 113 109 103 99 99 111 144 169 177 176 183 184 182 180 171 163 151 142 139 147 156 165 170 171 172 172 173 171 172 171 175 178 178 181 181 180 175 177 179 178 177 175 179 181 179 175 167 160 153 146 146 156 156 151 146 142 140 132
239 243 251 247 250 254 258 261 260 261 211 135 169 157 169 198 201 215 140 152 167 171 118 83 103 111 112 127 134 133 124 122 117 110 108 104 99 97 102 110 112 110 104 96 95 108 129 163 178 187 187 186 186 178 171 164 155 147 154 163 169 173 173 172 170 172 172 174 176 178 181 184 185 182 182 182 185 184 182 184 180 182 185 183 176 168 159 153 150 148 154 154 148 145 143 142 136
241 250 257 262 264 255 254 259 271 281 251 141 149 138 165 171 177 208 160 186 150 104 91 66 41 93 141 155 142 136 127 119 113 111 110 106 104 99 94 97 103 107 107 105 101 101 101 120 161 181 183 188 190 182 178 173 165 155 160 168 170 173 175 175 173 174 177 181 181 182 183 183 188 188 186 189 194 192 186 187 184 184 186 186 183 176 159 154 156 153 157 156 149 147 146 145 140
240 255 261 262 264 259 253 257 265 279 292 113 123 132 169 143 171 214 91 69 100 112 120 94 34 5 152 147 132 125 120 117 115 117 117 117 116 108 102 96 90 91 98 108 110 108 102 101 124 153 167 190 190 177 181 183 177 167 165 170 173 173 176 180 179 182 185 189 188 185 185 186 194 196 193 196 201 198 191 189 185 184 185 186 188 182 163 157 160 157 158 155 150 150 149 150 147
232 244 260 256 253 254 255 255 246 264 54 100 133 156 178 144 177 228 86 86 111 135 132 96 73 48 73 106 117 117 118 121 123 127 128 134 131 119 114 110 101 91 85 97 112 117 113 106 107 120 127 154 175 168 182 184 182 177 172 177 178 178 180 182 182 186 188 192 195 189 189 194 199 201 199 199 203 201 195 191 183 182 184 183 186 182 167 158 160 161 159 156 153 152 151 153 154
234 227 243 250 248 246 253 264 265 255 99 109 155 170 196 165 176 165 115 168 121 143 124 95 93 90 93 103 112 118 122 128 134 138 142 156 148 129 125 122 117 110 98 84 88 103 109 116 121 117 110 119 150 169 184 177 180 182 179 180 182 189 184 182 184 187 190 193 197 194 196 199 197 204 204 200 203 200 197 193 182 181 183 180 180 179 168 160 164 166 162 160 159 156 154 154 151
237 231 234 244 249 248 255 302 0 351 103 142 175 175 220 175 168 154 178 204 152 162 155 137 128 112 115 114 117 123 127 137 144 148 158 156 119 105 109 109 109 112 112 96 82 82 82 97 112 114 109 116 129 155 185 184 186 186 184 183 180 190 186 189 192 191 195 194 199 201 205 206 202 210 208 200 201 200 199 197 185 182 184 182 178 176 169 161 166 172 172 169 171 172 166 164 153
227 234 241 230 250 278 265 329 32 352 18 136 163 182 210 157 160 160 197 211 175 191 178 158 156 139 137 126 124 127 132 140 145 153 145 116 97 98 106 107 113 112 110 102 92 88 73 67 79 100 105 101 112 127 151 167 179 183 185 186 180 185 190 194 194 198 202 200 207 208 212 212 209 216 213 200 197 198 201 198 190 186 185 184 179 175 171 166 167 177 185 184 189 193 186 184 173
212 220 245 237 262 304 280 188 100 301 339 35 124 200 195 152 166 168 205 217 181 212 200 175 175 160 145 128 127 130 135 138 143 144 113 107 105 102 101 104 115 116 113 108 106 107 109 105 84 95 103 101 107 130 144 145 162 175 182 188 186 186 196 200 198 205 204 205 209 206 213 215 217 224 217 206 200 198 203 199 192 190 187 186 182 176 173 172 169 176 188 194 200 206 210 208 188
222 220 240 257 284 322 8 3 6 160 296 311 141 205 184 147 179 170 212 224 143 297 201 177 178 156 137 127 131 133 139 142 147 139 113 109 104 100 103 108 115 113 111 108 111 119 123 126 119 100 92 115 118 143 152 151 171 175 168 180 190 197 202 206 214 216 211 213 208 198 215 225 229 234 226 219 210 200 203 201 195 195 194 191 184 176 177 175 170 174 185 196 207 218 230 221 186
227 226 233 253 272 306 11 22 20 22 255 246 160 225 213 169 191 188 225 220 80 39 40 107 132 131 128 127 133 139 144 149 149 134 125 121 112 121 130 126 120 109 108 108 111 113 108 107 116 109 88 117 129 145 144 149 187 189 171 176 186 200 203 214 231 221 216 226 221 206 227 240 241 239 235 227 215 204 202 200 202 202 199 198 189 178 184 181 175 181 191 201 213 224 229 213 182
227 247 247 249 238 234 30 46 24 270 246 249 138 253 228 167 185 206 225 192 93 73 59 74 99 118 127 130 139 145 146 154 146 132 135 133 120 122 116 111 110 108 110 110 113 108 94 85 86 93 90 84 53 123 134 112 115 150 176 186 192 200 199 211 234 227 227 238 248 236 233 239 238 232 233 225 213 211 205 202 204 202 203 207 199 187 191 190 183 194 204 208 220 224 210 194 190
225 251 266 257 223 213 103 97 243 246 247 283 37 250 232 194 209 212 219 201 111 100 101 108 114 124 132 138 143 147 149 153 141 131 132 125 119 119 112 108 108 110 114 111 114 109 100 92 84 85 83 75 64 94 121 105 91 64 41 95 214 218 209 212 231 235 251 264 259 248 231 225 223 220 224 219 217 219 211 210 207 201 207 210 206 199 198 195 191 202 211 215 223 218 195 185 193
212 236 254 229 206 233 171 183 218 215 235 251 224 226 230 229 246 243 233 232 125 118 164 154 136 140 144 147 147 147 152 148 134 126 124 125 128 126 121 120 120 120 120 118 116 109 106 104 100 101 83 83 114 77 77 88 84 71 35 25 43 234 233 238 240 217 326 28 60 261 223 208 219 223 220 211 220 226 214 213 211 208 214 212 206 206 204 202 200 202 208 216 218 208 193 186 197
232 235 250 236 228 232 184 215 224 205 228 229 218 233 236 230 221 216 238 241 161 138 189 185 160 153 146 151 151 150 153 142 133 126 126 135 137 133 133 132 129 128 128 124 119 113 112 108 97 99 93 80 94 96 80 71 69 85 48 45 71 31 326 276 254 241 0 3 346 281 247 206 215 223 220 210 214 221 212 211 216 217 223 225 211 207 210 209 207 205 208 214 212 211 202 187 198
263 250 259 234 232 226 189 229 227 199 224 216 221 245 245 235 211 211 236 230 177 159 197 192 180 163 149 154 154 156 152 142 139 133 137 146 144 145 140 130 129 130 129 125 123 117 106 102 92 90 97 78 78 94 97 94 80 90 92 94 92 39 34 18 291 267 339 354 333 262 250 275 240 213 211 220 214 210 209 210 220 220 223 234 224 214 224 217 209 208 211 216 214 218 208 185 189
257 253 264 234 218 219 217 225 214 201 219 195 211 253 246 241 220 215 235 211 154 172 206 195 183 170 157 154 155 165 153 150 153 144 149 155 151 151 137 132 138 132 127 127 126 121 108 104 100 95 96 82 79 83 91 106 90 91 103 89 81 79 95 64 30 310 326 338 337 284 257 271 302 247 203 213 217 213 215 211 212 216 221 231 224 219 227 223 219 214 215 223 219 219 215 187 180
251 241 242 244 223 219 218 213 208 207 198 157 179 254 240 237 223 215 213 159 152 191 207 198 185 173 164 156 161 169 155 160 162 152 160 162 152 148 138 142 144 131 129 134 131 128 123 117 110 103 100 94 93 84 86 101 86 83 89 73 73 85 110 119 92 52 15 40 340 302 275 259 280 289 246 206 212 218 226 217 211 217 220 221 221 226 223 216 229 224 215 229 225 214 219 204 187
248 241 227 245 245 238 215 198 204 199 161 154 191 259 256 258 239 212 187 157 171 202 207 203 190 177 168 158 168 170 160 172 167 159 168 161 149 146 145 151 145 136 138 139 138 135 131 127 120 113 107 101 99 93 90 93 83 78 78 70 78 82 76 92 89 66 91 116 134 298 291 278 271 280 267 239 211 212 229 228 221 225 223 219 223 230 219 206 223 229 220 230 224 214 224 217 201
232 238 230 227 237 266 225 181 187 190 167 179 209 254 250 267 259 185 155 160 184 204 204 202 192 180 170 162 175 175 161 174 172 164 168 158 148 147 153 156 144 141 145 143 144 141 135 134 129 122 116 109 103 99 96 94 91 85 82 78 77 79 74 79 78 71 109 110 121 141 180 293 283 263 267 255 228 207 221 230 233 238 227 221 227 229 219 206 208 219 220 220 215 219 235 223 201
214 230 246 234 223 257 210 162 180 195 187 190 204 243 258 272 344 123 139 167 186 208 200 194 196 180 171 167 175 181 163 172 181 167 164 161 151 150 158 157 143 144 149 147 149 147 143 141 138 134 128 122 115 111 105 102 106 99 92 85 80 89 80 64 70 78 93 103 104 123 142 328 330 278 233 247 256 228 214 222 230 233 225 222 232 237 231 222 209 207 212 213 215 223 241 241 209
212 212 234 252 246 255 206 171 187 197 203 204 196 218 263 280 106 125 152 177 186 217 203 191 195 177 176 179 177 189 175 170 183 166 161 165 156 152 160 157 144 146 152 152 154 152 150 149 148 147 143 138 131 129 126 119 117 111 101 84 75 96 89 61 65 85 90 107 98 71 39 46 25 325 223 246 276 264 229 225 221 215 223 226 228 237 238 231 222 217 209 204 214 225 235 252 245
266 238 230 248 251 264 267 198 179 189 200 218 217 220 246 266 237 159 164 182 198 216 213 200 192 183 185 190 191 198 188 177 182 166 160 166 161 154 159 158 150 151 156 158 159 157 155 157 157 155 154 152 141 141 151 144 125 104 93 81 72 83 80 69 74 77 78 92 87 49 19 58 49 13 50 293 277 290 256 240 230 214 216 223 224 232 235 232 227 225 220 208 212 227 234 243 264
333 319 301 278 248 243 257 126 148 177 188 209 235 249 247 255 259 225 174 174 202 213 218 218 195 188 190 196 208 209 198 186 182 166 160 165 165 156 157 159 157 157 161 163 164 164 162 161 162 162 163 160 154 164 176 160 130 103 89 77 72 73 66 77 100 89 77 83 83 65 48 65 3 344 25 12 297 312 313 292 259 234 226 227 230 234 234 234 230 225 226 225 223 232 240 239 255
334 323 309 300 280 247 214 111 120 140 201 219 230 253 262 261 264 263 205 171 191 213 216 222 212 200 196 202 207 208 214 203 188 168 160 165 168 160 159 160 161 164 166 168 171 171 167 165 167 167 168 173 179 174 154 133 113 109 107 87 74 74 62 68 99 103 100 86 86 109 104 92 2 354 3 354 318 294 303 320 300 277 262 247 244 247 245 241 234 228 228 235 235 235 242 244 255
329 318 299 294 290 283 283 116 116 111 158 251 265 266 272 273 268 269 247 191 185 203 213 217 218 216 211 213 209 205 210 207 201 175 163 168 166 163 162 160 163 168 171 174 176 176 171 169 172 170 169 177 182 161 142 133 127 122 113 97 82 85 72 71 95 107 111 108 105 117 112 109 65 18 7 327 307 290 288 283 287 300 305 287 267 259 256 251 243 236 237 243 241 238 245 247 250
323 309 290 286 284 283 266 166 150 143 151 250 268 270 272 271 264 260 255 231 196 191 203 215 219 223 225 221 220 217 211 209 212 194 177 173 165 162 163 161 165 171 175 178 179 179 176 175 175 171 170 173 168 157 154 153 151 139 125 123 113 105 94 92 109 107 98 100 98 118 138 172 217 5 340 310 296 285 288 274 272 281 286 288 285 279 271 266 256 245 243 246 248 246 251 251 245
292 284 279 274 261 269 267 159 103 47 355 293 283 280 273 269 264 254 246 245 232 190 187 200 216 226 234 232 233 225 217 224 217 206 203 181 164 159 160 161 167 173 175 178 181 182 180 181 179 172 171 173 166 162 166 164 160 151 137 132 122 122 127 115 111 101 85 77 87 120 149 258 281 321 330 317 313 312 311 286 277 282 273 271 276 278 276 274 272 263 253 247 246 248 251 252 243
261 252 256 268 265 280 304 21 51 1 290 260 268 278 268 257 253 247 238 230 243 233 203 198 203 217 230 237 246 237 222 222 210 208 219 182 155 154 159 164 170 175 176 178 182 183 182 183 181 173 172 173 170 170 174 175 170 161 153 153 157 155 145 121 107 99 88 84 102 156 172 0 318 323 326 331 324 315 318 304 298 303 285 278 278 277 272 267 263 266 265 251 242 242 245 249 242
265 244 238 251 264 287 310 303 293 293 272 227 221 257 273 256 241 231 230 220 224 236 236 223 208 210 218 222 232 235 230 225 215 224 208 151 144 153 159 167 174 178 180 181 183 184 183 184 182 174 173 176 176 176 178 179 175 173 180 187 190 181 150 122 116 109 105 103 76 68 185 180 291 332 341 337 313 305 315 303 297 306 297 287 285 284 283 277 263 253 255 252 244 240 239 241 241
258 258 246 237 242 263 286 291 289 279 287 209 179 225 281 282 264 226 213 218 220 217 226 234 226 219 218 218 217 214 223 219 216 237 197 149 155 163 161 168 177 182 185 183 181 183 184 183 182 176 175 179 179 178 178 177 178 181 189 191 189 187 149 131 139 135 127 138 85 72 152 189 245 260 281 299 299 298 301 292 288 293 293 291 288 287 287 285 279 268 256 250 248 243 236 234 238
251 319 294 257 238 247 264 277 274 264 285 217 176 217 266 283 292 269 223 211 216 211 212 223 229 234 231 223 212 204 210 204 196 219 207 168 169 175 170 170 176 183 187 184 177 181 186 183 180 177 177 181 181 180 178 178 182 181 182 185 186 188 159 148 161 163 146 149 160 162 154 176 197 202 239 239 254 272 275 280 284 282 281 284 284 284 285 283 282 281 275 263 255 250 241 235 236
248 215 294 276 262 261 258 261 260 253 267 249 214 223 239 251 265 273 254 221 204 203 210 217 219 234 241 228 219 214 201 189 189 198 210 196 168 172 176 172 177 184 185 183 178 179 184 184 179 176 179 181 181 183 180 180 185 179 178 185 186 178 166 170 177 173 168 163 170 180 169 201 210 162 198 221 239 248 255 264 270 275 276 278 281 280 280 283 284 283 284 281 270 259 250 240 237
272 335 292 282 281 276 256 253 259 253 251 253 248 240 241 258 247 246 249 223 195 200 211 215 208 216 232 223 215 219 197 181 193 190 196 205 166 165 176 175 178 183 182 181 179 178 183 184 179 177 181 183 183 185 183 183 186 180 179 186 185 176 174 186 181 170 178 185 182 188 190 207 224 219 212 218 228 229 241 251 256 266 266 268 277 278 278 282 289 289 287 286 283 276 264 248 240
266 319 268 259 252 250 247 247 254 260 257 250 254 252 250 264 256 254 261 202 192 213 210 202 200 202 215 213 204 211 199 185 195 186 181 193 169 164 173 176 177 178 177 178 177 178 183 184 180 178 182 184 185 187 187 186 185 181 184 187 185 183 181 185 182 177 184 190 187 192 203 208 212 225 232 238 240 230 239 252 258 263 262 263 266 271 277 281 287 289 285 282 280 278 276 265 252
238 240 250 258 243 230 231 238 237 248 259 255 258 255 245 252 249 264 308 146 182 225 212 190 202 200 200 205 200 203 205 196 193 182 176 183 170 163 167 170 173 174 174 176 176 178 183 185 182 180 183 186 186 188 187 186 186 183 188 188 185 189 188 187 191 191 188 191 197 197 204 216 221 228 231 240 243 234 242 255 265 272 272 271 266 266 270 271 278 282 280 280 278 273 273 275 270
241 237 241 252 251 240 232 232 230 240 248 250 265 266 251 255 250 258 296 302 199 214 230 240 247 210 188 196 199 195 206 205 193 183 179 175 165 158 159 165 173 175 174 174 175 179 183 185 184 183 185 185 185 186 185 186 187 185 187 188 186 189 191 190 193 195 192 194 202 202 204 218 228 233 231 237 243 242 252 260 264 270 274 275 272 271 270 268 273 277 277 280 281 276 273 274 276
213 230 239 242 249 254 253 249 244 250 251 247 268 281 268 263 253 246 271 279 255 231 217 243 280 252 187 190 201 196 203 211 203 195 185 169 162 157 159 169 175 172 171 174 177 181 183 184 186 186 186 184 183 185 185 187 188 188 189 189 188 190 191 192 193 197 198 198 202 205 209 219 229 240 241 245 251 252 255 260 262 264 268 271 272 273 275 274 275 277 277 278 278 278 277 276 276
220 224 232 245 258 265 267 269 269 274 295 298 279 279 255 257 263 243 259 274 277 266 229 201 245 270 218 198 210 208 205 212 214 213 200 169 162 163 165 171 169 163 169 178 181 182 184 186 188 188 186 183 183 183 185 188 189 189 191 190 191 192 192 194 196 200 203 200 204 207 211 221 229 240 249 252 256 255 257 263 268 272 273 275 276 275 277 278 279 280 280 278 277 279 278 277 276
255 242 235 238 252 267 275 280 288 296 303 296 279 268 252 255 259 259 269 276 273 279 274 223 216 241 242 224 224 224 221 215 207 215 221 174 161 166 168 167 163 163 172 182 184 184 187 189 189 189 187 182 182 184 185 188 189 190 193 193 193 192 192 195 197 201 204 201 203 208 213 225 232 239 249 256 259 259 263 268 272 276 278 280 281 281 279 279 280 282 282 280 278 278 278 277 277
270 262 255 251 246 251 264 277 287 288 279 273 263 258 263 264 254 245 253 261 259 266 272 259 236 219 216 226 233 244 254 247 226 210 210 185 161 161 163 166 168 170 176 184 188 188 189 190 188 188 187 182 182 185 185 188 189 190 194 195 195 194 193 196 198 201 202 201 206 212 217 225 236 245 252 257 261 262 265 269 272 275 276 277 279 282 281 280 281 282 282 281 279 278 277 277 277
263 263 269 280 271 256 250 259 264 258 259 266 260 257 259 260 261 251 247 250 256 263 259 248 240 220 206 202 205 223 243 260 271 249 215 192 159 157 162 170 177 179 181 184 188 188 188 190 189 186 185 183 183 185 186 187 188 190 193 195 196 197 195 196 199 201 201 203 212 220 226 232 239 247 252 256 262 266 270 272 276 277 277 277 278 278 279 279 281 282 281 279 279 279 279 278 276
257 273 280 280 275 266 251 248 258 259 260 265 262 263 262 255 257 266 264 262 267 283 287 271 259 249 225 210 203 210 219 235 261 264 242 220 173 162 163 169 178 182 183 185 185 181 179 184 188 188 187 185 184 185 185 186 187 189 192 194 196 197 198 198 199 201 203 208 216 220 225 234 240 246 253 260 264 268 272 274 277 280 280 280 279 277 277 278 279 280 281 280 280 280 280 278 276
256 264 268 264 267 276 271 259 257 257 259 265 266 265 261 257 264 270 276 287 290 291 313 308 281 268 253 240 215 208 206 207 227 246 247 234 210 180 166 167 176 181 184 189 183 173 173 181 186 188 190 187 183 183 183 184 186 187 189 193 195 196 197 198 200 202 206 211 217 222 228 235 243 250 257 261 261 264 270 275 279 281 282 282 281 279 276 276 277 277 277 277 278 279 279 278 276
254 254 262 259 258 284 295 278 269 267 265 267 268 266 260 263 287 290 293 316 325 308 307 298 278 264 259 268 261 226 221 207 198 228 255 239 219 190 165 166 180 187 189 189 178 171 174 181 184 187 190 187 182 181 183 183 184 187 189 192 194 195 196 198 201 203 208 215 220 226 232 238 244 252 257 258 261 267 273 277 279 280 281 281 282 281 280 278 277 276 276 275 276 276 276 276 277
267 262 267 265 262 280 290 274 273 276 273 271 270 271 273 280 303 314 312 317 325 323 320 310 305 313 303 291 278 243 245 234 177 195 259 260 222 188 167 173 190 192 183 179 174 174 177 179 181 185 187 187 183 182 184 184 184 187 190 192 193 194 196 197 200 204 210 217 224 231 236 240 246 251 255 259 265 271 275 277 278 278 278 278 279 280 281 280 278 275 274 274 274 273 273 273 273
Height
772 772 771 772 770 771 768 767 780 775 773 782 766 757 742 719 722 727 732 734 736 736 728 732 731 730 738 747 753 756 756 760 762 769 789 780 769 776 776 779 780 781 785 785 785 786 786 787 787 788 788 789 790 790 791 792 793 794 795 796 797 799 799 801 801 803 803 804 806 806 807 808 809 810 810 811 812 813 814 815 815 816 816 816 817 817 818 818 819 820 821 821 822 823 824 824 825
772 773 771 772 770 773 769 764 783 778 774 782 761 749 734 719 728 731 731 734 737 735 729 731 733 734 735 739 745 754 759 758 757 763 769 769 772 777 777 780 781 783 785 784 784 785 786 787 787 788 788 789 790 791 792 792 793 794 795 796 798 799 800 801 802 804 804 805 807 808 809 809 811 811 812 812 813 814 815 816 816 817 817 817 817 818 819 819 820 821 822 822 823 824 825 825 826
772 772 770 772 768 770 768 766 782 782 777 777 755 735 724 727 733 728 725 731 733 730 733 734 737 740 737 744 751 760 767 759 756 760 764 769 774 777 779 781 782 784 783 783 784 785 787 787 787 788 788 789 790 791 792 792 793 794 795 796 798 799 800 801 803 804 805 806 807 809 810 811 811 812 813 813 814 815 816 817 817 818 818 818 818 819 819 820 821 821 822 823 824 824 825 827 827
772 771 770 769 769 770 772 774 777 778 778 768 751 727 719 728 727 725 726 728 729 730 736 739 745 744 741 754 756 760 768 763 760 762 766 770 774 779 780 781 783 784 783 784 785 786 787 787 787 787 788 789 789 791 792 792 793 793 795 796 797 799 800 801 803 804 805 807 808 809 811 812 812 813 814 814 815 816 816 817 818 819 819 820 820 820 820 821 821 822 823 824 824 825 826 828 828
772 772 770 768 772 770 770 774 770 773 773 758 748 729 718 726 728 731 730 729 729 731 736 740 750 747 745 754 754 763 769 764 763 763 767 771 776 780 779 781 783 784 785 785 785 786 787 787 787 787 788 788 789 790 791 792 792 793 794 795 797 798 800 801 803 804 806 807 808 809 811 812 813 814 815 815 816 817 818 818 819 820 820 821 821 821 821 822 822 823 824 824 825 826 827 828 829
772 770 768 767 768 764 770 776 771 769 758 745 744 732 722 725 730 734 733 731 728 730 734 739 747 750 757 757 754 761 762 764 766 764 769 774 777 779 780 781 782 784 785 785 786 786 786 787 787 788 789 789 789 789 791 791 792 793 794 795 796 798 800 801 803 804 806 807 809 810 811 812 813 814 815 816 817 818 819 819 820 820 821 822 822 822 822 823 823 824 824 825 826 827 828 829 830
771 770 767 770 768 765 778 778 769 763 746 735 736 732 726 726 730 734 736 737 736 735 735 739 741 752 764 761 762 763 760 764 765 768 773 776 779 779 781 781 781 782 783 784 785 785 786 786 787 788 789 789 789 790 791 791 792 792 793 795 796 798 800 802 803 804 806 807 809 810 812 813 814 815 815 817 817 819 819 820 821 821 822 822 823 823 823 824 824 824 825 826 827 827 829 830 831
769 770 765 772 774 770 777 774 765 756 741 727 722 726 727 726 731 735 739 742 743 742 740 740 738 754 765 759 769 769 762 766 766 771 775 777 780 780 782 782 781 781 783 784 784 784 785 786 788 789 789 790 790 790 791 792 793 793 793 794 796 798 800 802 803 805 806 808 809 811 813 813 815 815 815 817 818 819 820 821 822 822 823 823 823 824 824 824 825 825 826 826 827 828 829 830 831
766 769 767 772 776 772 772 769 761 750 740 727 720 726 727 727 732 735 740 741 741 742 743 740 738 757 767 763 773 769 765 769 769 772 775 778 780 781 782 782 783 782 783 784 784 785 786 787 788 789 790 790 791 792 792 793 794 795 795 795 796 798 800 802 804 805 807 809 810 812 813 814 815 816 816 817 819 820 821 822 823 823 823 824 824 824 825 825 826 826 826 827 828 829 830 831 832
765 766 769 772 775 776 773 765 757 747 736 726 722 726 727 729 732 734 738 740 740 742 742 738 740 757 765 768 773 768 768 770 770 774 776 778 779 781 782 783 784 783 784 784 785 786 786 788 788 790 791 791 792 792 793 794 796 797 797 797 798 799 801 803 804 806 808 810 811 812 814 815 816 817 817 818 819 820 822 823 824 824 824 825 825 825 825 826 827 827 827 828 829 830 831 832 832
768 764 766 774 777 778 773 761 752 743 731 724 725 726 727 728 732 734 736 741 740 743 745 742 747 756 763 770 772 768 768 770 771 775 776 778 780 781 782 784 784 784 785 784 785 786 787 788 789 791 791 792 792 793 794 795 797 799 800 800 800 801 802 804 805 807 808 811 812 813 814 815 817 817 818 818 820 821 822 823 824 825 825 825 825 826 826 827 827 828 828 829 830 831 831 832 833
772 766 765 778 778 771 765 757 747 738 729 729 732 729 728 728 734 737 737 741 741 746 748 745 747 751 765 773 771 767 767 771 773 775 778 779 780 781 783 784 785 785 785 784 786 786 787 789 790 791 792 793 793 795 796 797 798 799 801 802 803 803 804 805 806 808 809 811 813 814 815 817 818 818 819 819 821 822 823 824 825 825 825 826 826 826 827 827 828 828 829 830 831 831 832 833 833
771 767 767 775 769 762 758 751 742 735 729 731 733 728 727 731 737 736 735 741 744 750 748 742 740 746 765 771 767 767 768 772 774 777 779 780 781 782 783 784 785 786 786 786 786 787 789 790 791 792 792 793 794 796 797 798 799 800 802 803 804 804 805 807 807 809 810 812 814 815 816 817 819 819 820 820 822 823 824 824 825 826 826 826 826 827 827 828 829 829 830 831 832 832 833 834 834
766 762 765 769 762 758 755 750 741 736 730 726 727 726 729 733 734 732 735 745 747 747 742 737 738 749 765 769 770 769 769 772 774 778 779 781 782 783 784 784 786 786 787 787 787 789 789 790 791 792 793 795 796 797 798 799 800 801 803 803 805 805 806 807 808 810 811 813 814 816 817 818 819 820 820 821 823 824 824 825 825 826 826 827 827 827 828 828 829 830 831 831 832 833 834 834 835
761 758 762 767 764 758 753 748 742 739 728 720 723 726 732 732 730 734 737 745 746 738 739 741 740 753 763 766 772 767 767 772 774 778 779 782 783 784 785 785 786 786 788 788 789 790 790 791 792 793 794 795 796 797 799 800 801 802 803 804 805 806 807 808 809 811 812 813 815 816 818 818 820 820 821 822 823 824 824 825 826 826 827 827 827 827 828 829 830 830 831 832 833 834 834 835 835
755 757 764 769 768 763 753 744 742 744 730 720 724 728 737 735 731 737 735 738 745 740 742 748 745 751 753 756 764 763 767 772 775 779 779 782 783 785 786 786 788 787 789 789 790 791 791 792 792 794 795 796 797 798 799 800 801 802 803 804 805 807 808 809 810 811 812 814 815 817 818 819 820 821 821 822 824 825 825 825 826 827 827 827 828 828 829 830 830 831 832 832 833 834 835 835 835
752 760 770 772 769 763 752 742 742 742 732 729 731 731 741 742 736 735 732 736 747 747 746 750 748 750 751 753 760 763 769 773 775 778 779 781 781 784 786 787 789 789 790 790 791 792 792 793 794 795 796 797 797 798 799 800 801 802 803 804 805 807 807 809 810 811 813 814 815 817 818 819 820 821 822 823 824 825 825 825 826 827 827 828 828 828 829 830 831 832 833 833 834 834 835 835 835
756 765 773 773 766 757 745 737 733 730 733 739 736 734 740 745 743 737 739 744 748 751 750 752 752 754 757 759 763 767 771 773 775 777 778 779 779 782 785 787 789 790 791 791 792 792 793 794 794 795 796 798 798 798 799 799 801 802 803 804 806 807 808 809 810 811 813 814 816 817 818 819 820 821 822 823 824 825 825 825 826 827 828 828 829 829 829 830 832 832 833 834 834 834 834 835 835
760 764 771 769 758 746 733 730 730 728 735 739 736 737 739 741 743 741 749 753 750 756 757 756 758 760 761 763 767 770 772 774 775 776 777 777 778 781 784 786 789 790 792 793 793 793 794 794 795 796 796 798 798 799 799 800 801 802 804 805 806 808 809 810 810 812 813 814 816 817 818 819 820 821 822 823 825 825 825 826 826 827 828 829 829 829 830 830 832 833 833 834 834 834 834 835 835
759 761 768 761 748 740 729 728 734 734 733 736 738 738 739 740 740 743 752 753 752 758 757 758 763 763 764 765 768 770 772 774 775 776 776 777 780 782 785 787 789 790 792 794 794 795 795 795 796 797 797 798 798 799 800 800 801 802 804 805 806 808 809 809 810 812 813 814 815 817 818 819 820 821 822 823 824 825 825 826 827 828 829 829 830 830 830 831 832 833 833 834 834 834 834 834 835
756 759 763 750 740 741 732 729 735 736 735 738 741 741 742 739 738 743 750 753 755 754 749 752 758 758 762 765 768 771 773 774 775 776 777 779 782 784 786 788 790 791 793 794 795 796 796 796 797 798 798 798 799 799 800 800 801 803 803 804 806 807 808 809 810 812 812 814 815 816 817 818 820 821 822 823 824 825 825 826 827 828 829 829 830 830 831 831 832 833 833 834 833 833 834 834 835
754 754 753 743 738 742 737 732 735 737 739 740 743 746 743 739 740 744 748 753 754 747 740 741 746 751 759 765 768 771 773 774 776 777 779 781 783 785 787 789 790 791 793 795 796 796 796 797 798 798 799 799 799 799 800 801 801 802 803 804 805 806 807 808 810 811 812 813 814 815 816 818 819 821 823 823 824 824 825 826 827 828 829 830 830 830 831 831 832 832 833 833 833 833 833 834 836
755 752 745 742 740 744 742 739 741 741 744 744 745 744 740 743 748 745 746 749 747 743 738 738 741 748 758 765 768 771 773 775 776 777 780 782 784 786 788 789 791 792 794 795 796 797 797 797 798 799 799 799 800 799 800 801 801 802 803 804 805 806 807 808 809 810 811 813 814 815 816 817 818 821 824 824 823 823 825 826 827 828 829 830 830 831 831 831 832 832 832 832 832 832 832 834 836
752 752 744 741 739 742 744 745 747 746 746 743 742 743 742 749 751 747 747 745 743 743 742 743 746 751 760 765 768 771 773 774 776 778 781 783 785 787 788 789 791 793 795 796 797 797 798 798 799 799 800 800 800 800 800 801 802 802 803 804 805 806 807 808 809 810 811 812 814 815 816 817 818 821 823 824 823 823 824 825 827 828 829 830 830 831 831 831 831 832 832 832 832 832 832 834 835
750 752 745 740 741 741 744 748 750 748 746 743 744 749 748 748 748 748 748 743 742 745 746 747 750 756 762 766 769 771 772 774 775 778 781 784 786 787 789 791 792 794 795 797 798 798 799 799 800 800 801 801 801 801 801 802 802 803 804 805 806 807 807 808 809 810 811 813 814 814 815 816 818 820 822 823 823 821 823 824 827 828 829 830 830 830 831 831 831 832 832 832 832 832 833 834 835
747 749 744 741 745 743 744 749 750 749 748 746 751 756 751 745 746 752 748 742 741 745 749 749 752 759 763 766 768 770 772 774 776 778 782 784 787 788 790 792 793 795 796 797 798 799 800 800 801 801 801 801 801 802 802 802 803 803 804 805 806 807 807 808 809 811 812 814 815 813 814 816 817 819 820 822 821 820 821 823 826 827 827 829 830 830 831 831 832 832 832 832 832 832 833 833 834
742 744 742 742 747 744 746 750 748 749 749 748 754 758 752 744 750 759 751 741 742 747 751 750 753 759 763 766 768 770 772 774 776 779 782 785 787 789 790 792 794 795 797 798 799 799 800 801 801 802 802 801 801 802 803 803 804 805 805 806 807 807 807 808 808 810 813 814 815 814 813 816 818 818 819 820 821 820 821 823 825 826 826 828 829 830 831 832 832 833 832 832 832 832 832 832 833
742 744 745 745 747 746 748 751 748 749 751 749 752 756 752 746 752 758 749 740 743 749 753 751 753 757 761 766 768 769 771 774 777 779 782 785 786 788 790 791 794 795 797 798 799 800 800 801 802 802 802 802 802 803 804 805 805 806 807 807 808 808 808 808 808 810 812 814 815 814 813 815 817 818 819 819 820 821 821 823 825 825 825 826 829 830 830 831 832 833 832 832 832 832 832 832 832
744 745 752 751 748 751 750 749 748 750 752 746 750 762 759 753 752 750 743 740 743 750 753 752 754 756 759 764 767 769 771 774 777 779 782 784 786 788 789 792 794 795 797 798 799 800 801 802 803 803 803 803 803 804 804 805 806 807 808 808 809 809 809 810 810 811 811 814 815 813 813 814 816 818 819 819 820 821 822 823 824 824 825 826 828 829 829 830 831 832 832 832 832 832 832 832 832
749 746 754 755 753 756 748 746 747 749 750 743 754 774 767 752 746 742 740 741 747 753 753 752 754 755 759 763 766 768 770 773 775 778 781 782 785 787 789 791 793 795 797 798 799 800 801 802 803 804 804 804 804 805 805 806 806 807 808 808 809 809 810 811 811 812 813 814 814 813 811 812 815 817 818 820 821 822 822 822 823 823 824 826 827 828 828 828 830 831 831 831 831 831 832 831 831
751 751 754 756 761 756 739 741 747 749 750 743 757 777 767 749 739 734 736 742 749 754 753 752 753 755 758 762 765 767 769 772 773 776 779 781 783 786 789 791 792 795 796 798 799 800 802 802 804 804 805 805 805 806 806 806 807 807 808 808 809 809 810 811 812 813 813 814 815 813 811 811 814 817 818 819 820 822 821 821 822 823 823 825 826 826 827 828 829 831 831 831 831 830 831 831 831
751 760 762 756 760 753 734 735 743 749 750 744 757 773 764 747 733 727 734 742 748 753 753 752 753 754 757 761 764 766 767 770 771 774 777 779 782 785 788 790 791 794 796 797 799 800 802 803 804 804 805 806 806 806 806 807 807 808 809 809 809 810 810 811 812 813 813 815 815 814 813 813 814 817 817 817 818 820 820 820 820 821 822 824 825 825 826 827 829 830 830 831 831 830 830 829 829
752 760 765 756 755 751 739 738 739 742 747 746 755 765 759 746 735 732 738 744 748 751 751 752 753 754 756 760 762 764 766 768 770 772 775 778 781 784 787 789 791 793 795 797 798 800 801 802 803 804 805 806 806 807 807 807 808 808 808 809 810 810 811 811 812 813 813 815 815 815 815 814 814 816 816 816 817 818 819 819 819 820 821 822 823 824 825 826 827 828 829 830 831 831 829 829 828
755 755 759 753 749 748 745 743 737 736 745 748 752 759 757 747 742 743 743 744 749 751 751 751 752 754 756 758 761 762 764 767 768 769 773 777 779 782 786 788 790 792 795 796 798 799 800 802 803 804 805 805 806 806 807 807 807 808 808 809 810 810 811 812 812 813 813 814 815 815 815 815 815 815 815 815 816 817 817 818 818 819 819 820 821 822 824 825 826 827 827 827 829 830 829 828 828
757 755 756 754 749 747 744 742 738 737 746 750 752 757 755 748 744 744 743 744 749 751 750 750 751 754 756 757 759 761 762 764 765 766 770 775 778 781 784 787 790 792 794 796 797 798 800 801 802 803 804 805 805 806 806 807 807 808 809 809 810 810 811 812 812 813 814 814 814 815 815 815 815 814 815 815 815 816 816 817 817 818 818 819 820 821 822 823 824 825 825 825 827 828 828 827 827
759 756 754 754 750 746 741 739 737 737 748 753 755 757 753 749 745 742 741 743 748 750 750 750 750 752 755 757 759 759 760 761 761 763 768 772 776 779 783 786 789 791 794 795 797 798 799 800 801 803 803 804 805 805 805 806 807 808 808 809 810 810 811 812 812 813 814 814 814 815 815 815 815 814 814 815 815 815 815 816 816 817 817 818 819 820 821 821 822 823 823 824 825 826 827 827 827
758 757 755 752 749 745 739 742 741 739 751 755 752 755 752 749 746 740 739 743 748 751 751 751 751 751 753 756 757 757 758 757 757 760 764 768 773 776 780 784 788 791 793 794 795 796 798 799 800 801 802 803 803 804 804 805 806 807 808 809 809 810 811 812 812 813 813 814 814 815 815 815 815 815 815 814 814 814 815 815 815 815 816 816 817 818 819 820 820 821 821 822 823 824 825 826 827
759 761 761 757 753 749 742 745 746 744 756 757 751 756 756 750 748 741 738 742 748 749 750 752 750 751 751 752 754 755 755 754 755 758 761 764 768 772 776 780 785 788 791 793 794 795 796 798 799 800 801 802 803 803 804 805 806 807 808 808 809 810 810 811 812 812 813 813 814 815 815 815 815 815 815 814 814 814 814 814 814 814 814 815 816 817 818 818 819 820 820 821 821 822 822 824 826
762 762 763 762 757 751 746 746 745 745 757 760 756 760 759 751 747 743 739 739 742 743 746 749 749 750 751 751 752 752 754 754 755 756 758 761 764 768 773 776 781 786 789 791 792 794 795 796 798 799 800 801 802 802 803 804 805 806 807 808 808 809 810 811 811 811 812 813 813 814 814 814 814 814 814 814 814 814 814 814 814 814 814 814 815 815 816 816 817 818 819 820 820 821 821 821 823
765 765 767 765 757 755 756 753 750 749 755 760 759 763 761 752 747 742 738 735 736 738 741 744 747 749 749 749 750 751 753 755 755 755 756 758 761 765 770 774 778 783 786 789 791 792 793 795 796 797 799 800 800 802 802 803 804 805 806 807 808 808 809 810 810 811 811 812 813 813 813 813 813 813 813 813 813 813 813 813 813 813 813 814 814 814 814 815 815 816 818 819 819 820 819 819 820
766 764 767 764 756 755 757 757 756 755 757 759 763 771 765 754 751 745 736 735 736 736 738 742 744 746 747 748 748 748 750 751 752 754 754 755 758 763 768 772 776 780 783 786 788 790 791 793 795 795 797 798 799 800 801 802 803 805 806 807 807 808 808 809 810 810 810 811 812 812 812 812 812 812 812 812 812 812 812 811 812 812 813 813 813 814 814 814 814 815 816 817 818 819 818 819 820
770 762 760 760 757 756 757 758 760 767 769 757 762 784 775 750 746 745 737 737 739 738 738 739 741 742 744 747 747 747 747 748 750 752 753 753 757 762 766 771 775 778 780 783 785 787 789 791 793 794 796 797 798 799 800 801 802 804 804 805 806 806 807 808 809 809 810 810 810 810 811 811 812 812 812 812 812 812 812 812 812 812 812 812 813 813 813 814 814 814 815 816 817 817 817 818 819
774 760 749 751 753 756 760 761 765 776 774 754 755 781 780 754 742 738 735 737 738 738 739 738 737 738 739 741 743 745 746 747 749 750 751 752 756 760 764 768 772 776 779 781 783 785 787 789 791 793 794 796 797 798 799 801 801 803 804 804 805 805 806 807 808 808 809 809 809 810 810 810 811 811 811 811 812 812 812 812 812 812 812 812 812 812 812 813 813 813 813 814 814 815 816 816 816
769 756 748 749 749 755 761 764 768 770 765 757 754 765 776 769 749 733 730 736 736 735 737 737 735 735 735 736 737 740 743 745 748 750 750 751 754 758 762 766 770 774 777 779 781 783 785 788 789 791 793 794 795 797 798 800 801 801 803 803 804 805 805 806 807 808 808 809 809 809 809 810 810 810 811 811 811 811 811 812 812 812 812 812 812 812 812 812 812 812 812 812 812 812 813 813 812
759 750 750 750 747 753 758 764 767 763 766 772 760 755 773 773 750 734 729 731 733 734 735 735 734 735 734 733 735 736 739 741 744 748 749 749 751 755 759 763 767 771 775 777 778 781 783 785 787 789 792 793 794 796 797 798 800 800 802 803 803 804 805 806 806 807 808 808 808 809 809 809 809 810 810 810 811 811 811 811 811 811 811 811 811 811 811 811 811 811 810 810 810 809 810 810 809
751 747 751 751 750 754 759 764 765 764 772 777 761 752 767 767 745 735 732 728 731 733 731 731 731 733 733 732 733 734 735 738 742 744 747 748 750 753 757 761 765 769 772 775 777 779 782 784 785 787 790 791 792 794 796 797 798 799 800 802 802 803 804 805 805 806 807 807 808 808 808 809 809 809 809 810 810 810 810 810 810 810 810 810 810 810 810 810 810 809 809 809 808 808 808 808 807
748 752 756 757 757 756 760 762 763 774 779 770 756 747 757 764 747 733 729 724 726 728 727 727 728 730 731 730 731 732 733 735 738 741 744 747 749 751 755 759 763 767 769 773 775 777 780 782 783 785 788 790 791 793 794 796 797 798 799 800 801 802 803 803 804 805 805 806 807 807 808 808 809 809 809 809 809 809 809 809 809 809 809 809 809 809 809 809 808 808 808 808 807 807 806 806 806
748 755 761 766 765 761 767 767 768 786 787 766 751 742 750 765 752 731 723 719 720 724 724 726 726 727 728 728 728 729 730 732 734 737 741 744 747 750 754 758 762 765 768 770 773 775 778 780 781 784 786 788 789 791 793 794 795 797 798 799 800 800 801 802 803 803 804 805 806 806 807 807 808 808 809 808 809 809 809 808 808 808 808 808 808 808 808 807 807 806 806 806 806 805 805 804 804
752 758 764 776 778 774 779 778 776 784 778 758 747 744 751 755 742 729 726 721 720 722 722 724 724 723 724 725 726 726 728 729 730 734 737 740 744 748 752 757 760 764 767 769 771 774 776 778 780 782 784 786 787 789 791 793 794 795 796 797 798 799 800 801 801 802 803 804 805 805 806 806 807 807 808 808 808 808 808 808 808 807 807 807 806 806 806 805 805 805 804 804 804 804 804 803 802
756 760 766 777 783 786 789 781 776 775 766 753 746 749 758 752 734 727 726 722 717 717 719 722 722 720 721 722 724 725 726 728 728 730 734 737 741 745 749 754 758 762 765 768 770 772 774 776 778 780 782 784 786 788 790 791 793 794 795 796 797 798 799 799 800 801 802 803 803 804 805 805 806 806 807 807 807 807 807 807 807 807 806 806 805 804 804 803 803 803 803 803 802 802 802 801 801
749 747 754 767 771 780 785 779 778 775 767 760 753 756 764 757 738 725 721 718 714 714 714 717 721 720 719 720 722 725 726 727 728 728 730 733 736 740 744 749 754 759 763 766 769 771 773 775 777 779 780 782 784 786 788 790 791 793 794 795 796 797 797 798 799 800 801 801 802 803 803 804 804 805 805 806 806 806 806 806 806 805 805 805 804 803 802 802 802 801 801 800 800 800 800 799 799
744 736 747 760 759 764 772 771 770 772 774 770 762 758 751 741 731 721 719 718 715 716 713 714 720 720 720 723 723 725 725 725 727 728 728 731 733 737 741 745 750 754 760 764 767 769 771 773 775 776 778 780 782 784 786 788 790 791 792 794 795 795 797 797 798 799 800 800 801 801 802 803 803 803 804 804 804 804 804 804 804 804 804 803 803 802 801 801 800 799 799 798 798 798 798 797 797
745 744 749 747 740 750 767 773 768 772 784 774 761 759 747 738 733 722 720 722 718 719 717 715 718 719 721 726 725 726 726 724 725 726 727 729 733 737 740 744 748 751 756 760 764 767 769 771 773 775 776 778 780 782 784 786 788 789 791 792 793 794 795 796 797 798 799 799 800 800 801 801 801 802 802 803 803 803 803 803 803 802 802 802 801 801 800 800 799 798 798 797 796 796 796 795 795
744 750 745 736 737 743 757 774 776 779 787 773 759 761 755 752 747 727 719 724 721 719 717 716 717 719 722 724 726 727 727 726 725 724 725 727 731 735 739 743 747 750 753 757 760 764 767 770 771 772 774 776 778 780 782 784 786 787 789 790 792 793 794 795 796 797 797 798 798 799 799 800 800 800 801 801 801 801 801 801 801 801 800 800 800 799 799 798 798 797 796 796 795 795 794 793 792
734 739 734 740 757 758 755 769 778 783 787 776 764 759 754 751 744 730 724 724 721 719 718 718 718 719 721 722 723 724 725 727 727 726 726 726 729 733 737 740 744 747 751 754 757 760 763 767 769 770 772 773 775 777 779 782 783 785 787 789 790 792 793 794 795 796 796 796 797 798 798 798 799 799 799 799 799 799 799 799 799 799 799 798 798 798 798 797 797 796 795 795 794 793 792 791 790
731 735 734 739 753 758 756 760 766 775 782 778 770 764 755 743 730 725 725 721 720 721 721 723 721 719 721 721 721 722 724 727 727 727 727 726 728 730 733 737 741 744 747 750 754 756 759 763 766 768 770 771 773 775 777 779 781 783 785 787 789 790 791 792 793 794 795 795 796 796 797 797 797 798 797 797 797 797 797 797 797 797 797 797 797 796 796 796 795 795 794 793 792 792 791 789 788
741 746 748 748 749 751 756 757 755 762 774 776 776 772 755 733 720 720 722 720 721 721 721 723 721 719 719 720 721 723 723 725 726 727 727 726 727 728 731 734 737 741 744 747 750 752 755 758 761 764 767 769 771 773 775 777 779 781 783 785 787 788 790 791 792 793 793 794 795 795 796 796 796 796 796 796 796 795 795 795 795 795 795 795 795 795 794 794 794 793 793 792 791 791 790 788 787
741 749 750 750 752 756 770 776 764 763 773 772 773 775 755 729 720 721 721 723 722 721 722 722 720 720 722 722 723 724 725 724 724 726 727 727 726 728 731 734 736 738 741 743 746 749 752 754 757 760 764 766 768 770 773 775 776 779 781 783 785 786 788 789 790 791 792 793 794 794 795 795 795 795 795 795 795 794 794 793 793 793 793 793 793 793 793 792 792 792 791 791 790 789 788 787 786